Wind_Speed
2 2 2 2 2 2 2 2 1 1 1 2 1 1 1 0 1 2 2 2 2 2 2 3 3 2 2 2 2 2 2 3 3 4 4 4 4 4 4 4 4 4 4
0 1 2 2 2 1 1 1 1 1 2 2 2 2 2 2 2 2 3 3 3 3 4 5 5 3 2 2 2 3 3 4 5 5 5 6 6 6 5 6 6 5 5
1 1 1 1 1 1 1 1 2 2 3 2 2 2 2 3 3 3 3 3 3 3 4 5 4 4 3 3 3 3 3 4 5 5 6 6 7 7 7 7 7 6 6
2 2 2 2 2 2 2 2 3 3 3 3 3 3 3 3 3 3 3 3 4 4 4 4 3 4 4 4 4 4 4 4 5 5 6 6 7 7 7 7 7 7 7
3 3 3 2 3 3 3 3 3 3 4 4 4 4 4 4 4 3 3 3 4 4 4 3 3 4 4 5 5 5 5 5 5 5 6 6 7 7 7 8 8 8 7
3 3 4 4 4 4 4 4 4 5 5 5 5 5 5 5 4 4 4 4 4 5 5 4 4 4 5 5 5 5 5 5 5 6 6 7 8 8 8 8 8 8 8
4 4 4 5 5 5 5 5 5 6 6 6 5 5 5 5 5 5 5 5 4 5 5 5 5 5 5 5 5 5 5 6 6 6 6 7 8 8 9 9 9 10 9
5 4 5 5 6 5 5 6 6 7 6 6 6 6 6 6 6 6 6 5 5 5 5 6 6 6 5 5 5 5 5 6 5 6 6 7 7 8 9 10 10 10 9
6 6 6 6 6 6 6 7 7 7 6 6 6 6 6 5 6 6 7 6 6 6 6 6 6 6 6 6 6 6 6 6 6 5 6 7 7 8 8 9 10 10 10
6 7 7 7 7 7 7 7 7 6 6 5 5 6 6 6 6 6 7 7 6 6 6 5 6 6 6 6 6 6 6 6 6 7 7 7 7 7 8 8 9 10 10
7 7 7 7 8 8 7 7 6 6 6 5 6 6 6 6 6 6 6 6 6 6 6 5 5 5 6 6 6 6 6 6 6 7 7 7 7 7 8 8 8 9 10
7 8 8 8 9 8 8 7 7 6 6 7 6 7 6 6 6 6 6 6 5 5 6 6 6 6 7 7 8 7 7 7 6 6 6 6 7 7 8 8 8 9 9
8 8 9 8 8 8 8 8 8 8 8 8 8 8 7 7 7 6 6 5 5 6 6 6 6 6 7 7 7 6 7 7 7 7 7 7 7 8 8 8 8 9 9
9 9 9 9 9 9 9 9 9 9 8 7 7 7 6 6 7 6 6 6 6 6 7 7 7 7 7 7 7 7 7 7 7 7 7 7 8 8 8 8 8 8 8
9 9 9 9 9 9 9 9 9 9 8 7 6 6 6 6 6 6 6 6 6 6 7 7 7 7 7 7 8 8 8 8 7 7 7 7 8 7 8 8 8 8 8
9 10 9 9 9 9 8 8 9 8 8 7 7 6 6 6 6 6 6 6 6 6 7 7 8 8 8 8 8 8 8 8 8 8 8 8 8 8 8 8 8 8 8
10 10 10 10 9 8 8 9 8 8 7 7 7 6 6 6 6 6 6 6 6 6 7 8 8 8 8 8 8 8 8 8 8 8 8 8 8 8 8 8 7 8 8
10 10 10 10 9 8 8 8 8 8 8 7 7 6 6 6 6 6 6 6 7 7 7 8 7 8 8 8 8 9 8 8 9 9 9 9 9 9 8 8 8 8 8
10 10 10 9 9 8 8 8 8 9 9 8 8 8 7 7 6 6 6 7 7 7 7 8 7 7 8 8 9 9 9 9 9 9 9 9 9 9 9 10 10 9 9
10 10 9 8 8 8 8 8 8 8 9 9 9 9 8 8 7 7 7 7 7 7 7 8 8 8 8 8 8 8 9 9 10 10 10 10 10 10 10 10 10 10 11
10 10 9 9 8 8 8 8 8 8 9 10 10 9 9 9 9 9 8 8 8 8 8 8 8 8 8 8 8 8 8 9 9 10 10 11 11 11 11 11 11 11 11
10 10 10 9 9 9 9 9 9 9 9 9 9 9 9 10 9 9 9 9 9 9 9 8 8 9 9 9 9 9 9 9 10 10 11 11 12 12 12 12 12 12 12
10 10 10 9 9 10 10 10 10 10 11 11 10 9 10 10 10 10 10 10 10 10 9 9 9 9 9 9 10 10 10 10 10 11 11 11 11 12 13 13 12 13 13
11 10 10 10 10 10 11 11 10 11 11 11 11 10 10 10 11 11 11 11 10 10 10 9 9 9 9 9 10 10 10 10 10 11 11 12 12 12 12 12 13 13 13
11 11 11 11 11 11 11 11 11 12 12 12 12 12 11 11 11 11 10 10 10 10 9 9 9 10 10 10 10 10 10 10 11 11 12 12 12 12 12 12 13 13 13
12 12 11 11 11 11 12 12 12 13 13 13 13 13 12 12 12 11 11 11 11 11 10 10 10 10 10 10 11 11 11 11 12 12 13 13 13 14 14 14 13 13 14
Wind_Direction
71 50 47 57 61 54 50 49 47 47 2 358 356 19 10 278 252 269 289 283 268 271 270 265 261 247 246 242 234 242 254 247 236 237 236 236 240 243 243 238 239 246 254
125 53 32 35 55 38 23 22 352 332 325 327 330 329 317 288 272 268 272 276 272 274 273 259 248 249 253 252 262 266 257 247 239 239 238 242 247 246 240 243 245 248 253
252 297 328 335 345 2 353 337 330 314 311 310 299 300 298 289 280 269 270 278 283 287 287 266 246 257 253 253 264 268 263 253 243 241 241 245 249 247 245 248 247 249 252
255 268 288 302 297 302 303 305 314 304 292 285 282 282 284 284 283 271 273 282 289 294 294 261 247 256 259 256 259 265 266 262 251 246 247 250 251 247 248 251 252 253 249
253 258 272 281 289 295 294 296 302 303 287 279 279 280 285 284 280 280 282 290 290 287 282 265 261 267 266 254 255 263 267 267 258 251 250 251 251 248 251 254 254 253 248
254 258 267 274 278 286 291 293 293 294 291 287 284 282 285 282 280 279 279 284 285 283 276 265 269 282 274 262 264 267 268 264 259 256 254 249 250 253 254 254 254 256 252
257 259 266 273 274 277 287 292 292 294 299 300 295 291 285 281 275 271 269 270 273 272 272 261 266 276 272 269 267 266 267 267 260 258 257 252 250 255 256 255 255 255 255
259 263 268 271 275 277 283 289 292 294 294 294 293 292 289 282 274 271 270 267 268 267 267 261 261 271 277 271 268 274 271 267 264 265 264 259 256 255 253 254 256 256 257
261 266 272 270 272 273 279 287 289 290 293 292 291 290 285 279 274 270 270 269 265 261 265 262 260 267 275 265 261 265 265 269 269 276 271 267 264 261 260 259 258 258 259
266 272 272 269 269 272 277 285 287 286 290 292 291 292 283 273 268 268 267 264 261 259 260 263 257 259 264 261 267 267 266 272 273 279 276 272 266 260 258 260 260 258 260
273 272 270 271 270 270 273 278 279 278 281 284 290 293 285 276 271 266 268 265 266 267 268 273 277 267 270 273 280 277 278 280 280 277 276 272 266 261 262 264 265 262 260
274 272 272 275 274 272 270 271 271 272 282 285 287 287 282 281 276 273 272 269 266 265 267 274 276 273 267 273 276 277 276 278 280 276 272 270 269 267 266 264 266 266 262
268 272 277 276 273 268 267 269 268 271 279 281 284 283 279 274 276 276 275 270 266 267 266 273 277 277 275 277 274 272 280 278 273 270 270 269 274 276 272 270 268 267 266
269 274 279 279 273 270 269 270 271 268 275 279 281 280 275 270 272 275 279 275 270 270 271 275 276 277 276 274 278 283 285 286 280 272 270 271 275 279 279 269 268 268 265
271 275 279 277 273 273 272 270 272 270 270 275 274 276 275 274 274 276 278 273 270 267 268 273 276 276 272 272 276 283 282 280 278 273 271 273 276 274 277 280 273 278 270
273 275 277 276 276 276 274 270 270 269 267 273 274 273 271 272 274 276 278 277 270 268 271 270 272 273 273 276 277 282 281 276 273 269 268 269 272 272 272 276 277 280 278
271 272 273 274 275 280 277 270 267 266 267 272 274 273 270 268 270 275 277 273 271 269 273 273 272 272 278 277 277 280 281 276 270 268 264 268 270 271 269 269 272 276 279
271 271 269 270 272 274 274 269 266 267 269 271 275 274 272 270 271 276 277 272 272 271 275 278 276 276 279 279 279 280 281 277 270 266 263 266 267 269 268 267 270 275 277
268 268 268 270 270 270 267 268 270 268 265 267 269 272 273 270 266 271 276 277 277 274 274 277 279 280 280 279 280 279 276 273 269 267 264 265 267 269 270 269 270 274 273
263 265 268 271 269 267 268 265 269 270 268 268 270 271 269 267 272 274 272 276 279 279 278 280 278 279 279 281 283 280 274 270 267 264 264 265 267 268 270 271 272 273 274
262 264 263 267 267 266 265 264 269 272 273 273 270 269 267 268 273 275 274 277 279 279 278 280 277 276 278 280 282 279 277 273 269 267 265 266 268 269 268 270 273 274 275
262 264 266 265 264 266 267 267 269 270 271 270 266 268 270 268 269 272 273 274 275 274 275 275 274 276 278 280 283 283 278 275 272 270 269 270 270 270 269 271 272 273 275
264 264 265 265 266 267 268 269 266 271 271 268 268 268 270 271 270 273 274 273 272 270 269 272 276 276 278 281 283 284 281 276 274 274 272 273 274 274 273 271 272 271 272
266 266 267 269 269 271 271 271 272 273 271 268 267 269 269 270 272 274 274 272 272 271 269 272 277 279 282 284 285 284 283 280 275 273 275 275 275 274 273 272 271 270 271
272 272 271 269 269 272 274 273 276 274 272 269 267 267 267 269 270 272 273 273 272 271 271 272 277 281 283 285 285 284 283 283 283 277 275 274 273 272 274 274 270 267 271
275 274 273 272 272 273 274 275 276 275 273 270 269 266 264 265 266 267 268 269 268 268 270 273 278 281 283 285 285 283 281 280 281 279 277 274 271 272 274 273 270 269 271
Height
5893 5892 5891 5890 5890 5889 5889 5888 5888 5887 5887 5886 5885 5885 5885 5884 5884 5884 5883 5883 5882 5881 5881 5880 5880 5880 5880 5880 5880 5880 5880 5880 5880 5880 5880 5879 5879 5879 5879 5879 5879 5878 5878
5892 5892 5891 5890 5890 5889 5888 5888 5888 5887 5886 5886 5885 5885 5884 5884 5883 5883 5883 5882 5881 5880 5878 5877 5878 5879 5879 5879 5879 5879 5879 5879 5879 5879 5879 5879 5879 5879 5879 5878 5878 5877 5877
5892 5891 5891 5890 5890 5889 5888 5888 5887 5887 5886 5885 5885 5884 5884 5883 5883 5882 5882 5881 5880 5878 5875 5872 5875 5877 5878 5879 5879 5879 5878 5878 5878 5878 5878 5878 5878 5878 5878 5877 5877 5876 5876
5891 5891 5890 5890 5889 5889 5888 5887 5887 5886 5885 5885 5884 5884 5883 5883 5882 5881 5881 5880 5879 5877 5874 5872 5875 5877 5878 5878 5878 5878 5878 5877 5877 5877 5877 5877 5877 5877 5877 5876 5876 5875 5875
5891 5890 5890 5889 5889 5888 5887 5887 5886 5885 5884 5884 5883 5883 5882 5882 5881 5880 5880 5879 5879 5877 5876 5875 5876 5876 5877 5877 5877 5877 5877 5876 5876 5876 5876 5876 5876 5875 5875 5875 5875 5874 5874
5890 5889 5889 5888 5888 5887 5887 5886 5885 5884 5884 5883 5882 5882 5881 5881 5880 5880 5879 5878 5878 5877 5876 5876 5876 5876 5876 5876 5876 5876 5875 5875 5875 5875 5875 5875 5874 5874 5874 5874 5874 5873 5873
5889 5889 5888 5888 5887 5887 5886 5885 5884 5883 5882 5882 5881 5880 5880 5880 5879 5879 5878 5877 5877 5876 5876 5875 5875 5875 5875 5875 5875 5874 5874 5874 5874 5873 5873 5873 5873 5873 5873 5873 5872 5872 5872
5888 5888 5887 5887 5886 5886 5885 5885 5884 5883 5881 5881 5880 5879 5879 5878 5878 5877 5877 5876 5875 5875 5875 5875 5874 5874 5874 5874 5874 5874 5874 5873 5873 5872 5872 5872 5871 5871 5871 5871 5870 5870 5870
5887 5887 5886 5886 5885 5885 5884 5884 5883 5881 5880 5879 5879 5878 5877 5877 5876 5876 5875 5875 5874 5874 5874 5874 5873 5873 5873 5873 5873 5872 5872 5872 5872 5871 5871 5870 5870 5870 5870 5869 5869 5868 5868
5885 5885 5885 5884 5884 5883 5883 5882 5881 5880 5879 5878 5877 5876 5876 5875 5874 5874 5874 5873 5873 5872 5872 5872 5872 5872 5872 5872 5871 5871 5871 5871 5870 5870 5869 5869 5868 5868 5868 5867 5867 5867 5867
5884 5884 5883 5883 5882 5882 5881 5881 5880 5879 5878 5877 5876 5875 5874 5874 5873 5872 5872 5872 5871 5871 5871 5871 5871 5871 5871 5870 5870 5870 5870 5869 5869 5869 5868 5867 5867 5867 5866 5866 5865 5865 5865
5882 5882 5882 5881 5881 5880 5880 5879 5878 5877 5877 5876 5875 5874 5873 5872 5871 5871 5870 5870 5870 5870 5870 5870 5869 5869 5869 5869 5869 5869 5868 5868 5868 5867 5866 5866 5865 5865 5865 5864 5864 5864 5863
5880 5880 5880 5879 5879 5878 5878 5877 5876 5876 5875 5874 5873 5872 5872 5871 5870 5870 5869 5869 5868 5869 5868 5868 5868 5868 5868 5867 5867 5867 5867 5866 5866 5865 5865 5864 5864 5863 5863 5863 5862 5862 5861
5879 5878 5878 5877 5877 5876 5876 5875 5875 5874 5873 5872 5872 5871 5870 5870 5869 5868 5868 5868 5867 5867 5867 5867 5867 5867 5866 5866 5866 5865 5865 5865 5864 5864 5863 5863 5862 5862 5861 5861 5860 5860 5859
5876 5876 5876 5875 5874 5874 5874 5873 5873 5872 5872 5871 5870 5869 5869 5868 5868 5867 5867 5867 5866 5866 5866 5866 5866 5865 5865 5865 5864 5864 5863 5863 5862 5862 5861 5861 5861 5860 5860 5859 5858 5858 5857
5875 5874 5874 5873 5872 5872 5872 5871 5871 5870 5870 5869 5869 5868 5867 5867 5866 5866 5866 5865 5865 5865 5865 5864 5864 5864 5863 5863 5863 5862 5862 5861 5861 5860 5860 5859 5859 5858 5858 5857 5857 5856 5855
5873 5872 5872 5871 5871 5870 5869 5869 5869 5868 5868 5867 5867 5866 5866 5865 5865 5864 5864 5864 5863 5863 5863 5863 5862 5862 5862 5861 5861 5860 5860 5859 5859 5858 5858 5857 5857 5856 5856 5855 5855 5854 5853
5870 5870 5869 5869 5869 5868 5867 5867 5867 5866 5866 5866 5865 5865 5864 5864 5863 5863 5863 5862 5862 5862 5861 5861 5861 5860 5860 5859 5859 5858 5858 5857 5857 5856 5856 5855 5855 5855 5854 5854 5853 5852 5852
5868 5868 5867 5867 5867 5866 5865 5865 5865 5864 5864 5864 5863 5863 5863 5862 5862 5862 5861 5861 5860 5860 5860 5859 5859 5858 5858 5858 5857 5856 5856 5855 5855 5854 5854 5853 5853 5852 5852 5851 5851 5850 5850
5866 5865 5865 5865 5864 5864 5864 5863 5863 5862 5862 5862 5861 5861 5861 5861 5860 5860 5860 5859 5859 5858 5858 5858 5857 5857 5856 5856 5855 5854 5853 5853 5852 5852 5852 5851 5850 5850 5849 5849 5849 5848 5847
5863 5863 5863 5862 5862 5862 5861 5861 5861 5860 5860 5860 5859 5859 5859 5859 5858 5858 5858 5857 5857 5857 5856 5856 5855 5854 5854 5854 5853 5852 5851 5851 5850 5850 5849 5849 5848 5847 5847 5846 5846 5845 5845
5861 5861 5860 5860 5859 5859 5859 5858 5858 5858 5857 5857 5857 5856 5856 5856 5856 5856 5856 5855 5855 5855 5854 5854 5853 5852 5852 5851 5851 5850 5850 5849 5848 5847 5847 5846 5846 5845 5844 5843 5843 5842 5842
5859 5858 5858 5857 5857 5856 5856 5856 5855 5855 5855 5854 5854 5854 5854 5853 5853 5853 5853 5853 5852 5852 5852 5851 5851 5850 5849 5849 5848 5848 5847 5846 5846 5845 5844 5843 5843 5842 5841 5840 5840 5839 5839
5856 5855 5855 5854 5854 5854 5853 5853 5853 5852 5852 5851 5851 5851 5851 5851 5851 5850 5850 5850 5849 5849 5849 5849 5848 5848 5847 5846 5845 5845 5844 5843 5843 5842 5841 5840 5840 5839 5838 5837 5837 5836 5836
5853 5852 5852 5852 5851 5851 5850 5850 5849 5849 5848 5848 5848 5848 5848 5848 5848 5847 5847 5847 5847 5846 5846 5846 5845 5845 5844 5844 5843 5842 5841 5840 5839 5839 5838 5838 5837 5836 5835 5834 5833 5833 5833
5850 5849 5849 5848 5848 5848 5847 5847 5846 5845 5845 5845 5844 5844 5844 5844 5844 5844 5844 5844 5844 5843 5843 5843 5842 5842 5841 5841 5840 5839 5838 5837 5836 5835 5835 5834 5833 5832 5831 5831 5830 5830 5829